Time,TemperatureF,DewpointF,PressureIn,WindDirection,WindDirectionDegrees,WindSpeedMPH,WindSpeedGustMPH,Humidity,HourlyPrecipIn,Conditions,Clouds,dailyrainin,SoftwareType,DateUTC
2013-07-10 00:01:00,67.0,33.0,30.40,South,175,6.0,9.0,28,0.00,,,0.00,,2013-07-10 06:01:00,
2013-07-10 00:11:00,67.0,33.0,30.40,South,186,6.0,11.0,28,0.00,,,0.00,,2013-07-10 06:11:00,
2013-07-10 00:21:00,67.0,33.0,30.40,South,186,6.0,11.0,28,0.00,,,0.00,,2013-07-10 06:21:00,
2013-07-10 00:32:00,68.0,34.0,30.40,South,184,7.0,11.0,28,0.00,,,0.00,,2013-07-10 06:32:00,
2013-07-10 00:42:00,68.0,33.0,30.40,SSE,164,7.0,10.0,27,0.00,,,0.00,,2013-07-10 06:42:00,
2013-07-10 00:52:00,68.0,33.0,30.40,SSE,164,7.0,10.0,27,0.00,,,0.00,,2013-07-10 06:52:00,
2013-07-10 01:01:00,69.0,34.0,30.39,South,172,6.0,12.0,27,0.00,,,0.00,,2013-07-10 07:01:00,
2013-07-10 01:11:00,69.0,34.0,30.39,SSE,159,7.0,11.0,27,0.00,,,0.00,,2013-07-10 07:11:00,
2013-07-10 01:22:00,69.0,34.0,30.39,SSE,159,7.0,11.0,27,0.00,,,0.00,,2013-07-10 07:22:00,
2013-07-10 01:33:00,69.0,34.0,30.39,South,184,8.0,13.0,27,0.00,,,0.00,,2013-07-10 07:33:00,
2013-07-10 01:43:00,69.0,34.0,30.38,South,174,6.0,10.0,27,0.00,,,0.00,,2013-07-10 07:43:00,
2013-07-10 01:53:00,69.0,34.0,30.38,South,174,6.0,10.0,27,0.00,,,0.00,,2013-07-10 07:53:00,
2013-07-10 02:01:00,69.0,34.0,30.38,SSE,151,6.0,9.0,27,0.00,,,0.00,,2013-07-10 08:01:00,
2013-07-10 02:11:00,69.0,34.0,30.37,South,174,8.0,14.0,27,0.00,,,0.00,,2013-07-10 08:11:00,
2013-07-10 02:22:00,69.0,34.0,30.37,South,174,8.0,14.0,27,0.00,,,0.00,,2013-07-10 08:22:00,
2013-07-10 02:33:00,69.0,34.0,30.37,South,173,6.0,12.0,27,0.00,,,0.00,,2013-07-10 08:33:00,
2013-07-10 02:53:00,69.0,34.0,30.37,SSE,158,6.0,13.0,27,0.00,,,0.00,,2013-07-10 08:53:00,
2013-07-10 03:02:00,69.0,34.0,30.37,South,180,5.0,10.0,27,0.00,,,0.00,,2013-07-10 09:02:00,
2013-07-10 03:12:00,69.0,34.0,30.37,South,180,6.0,11.0,27,0.00,,,0.00,,2013-07-10 09:12:00,
2013-07-10 03:42:00,68.0,34.0,30.37,South,178,5.0,9.0,28,0.00,,,0.00,,2013-07-10 09:42:00,
2013-07-10 03:52:00,68.0,34.0,30.37,South,178,5.0,9.0,28,0.00,,,0.00,,2013-07-10 09:52:00,
2013-07-10 04:01:00,68.0,33.0,30.37,South,184,4.0,8.0,27,0.00,,,0.00,,2013-07-10 10:01:00,
2013-07-10 04:51:00,-999.0,-99.9,30.37,South,178,7.0,12.0,-999,-99.99,,,-99.99,,2013-07-10 10:51:00,
2013-07-10 05:00:00,-999.0,-99.9,30.37,South,178,7.0,12.0,-999,-99.99,,,-99.99,,2013-07-10 11:00:00,
2013-07-10 05:43:00,68.0,35.0,30.37,South,173,4.0,9.0,29,0.00,,,0.00,,2013-07-10 11:43:00,
2013-07-10 05:52:00,68.0,35.0,30.37,South,173,4.0,9.0,29,0.00,,,0.00,,2013-07-10 11:52:00,
2013-07-10 06:01:00,68.0,34.0,30.37,South,182,6.0,12.0,28,0.00,,,0.00,,2013-07-10 12:01:00,
2013-07-10 06:11:00,68.0,35.0,30.37,SW,222,5.0,7.0,29,0.00,,,0.00,,2013-07-10 12:11:00,
2013-07-10 06:22:00,68.0,35.0,30.37,SW,222,5.0,7.0,29,0.00,,,0.00,,2013-07-10 12:22:00,
2013-07-10 06:33:00,67.0,34.0,30.37,SSW,204,5.0,7.0,29,0.00,,,0.00,,2013-07-10 12:33:00,
2013-07-10 06:43:00,67.0,34.0,30.38,SSW,200,3.0,8.0,29,0.00,,,0.00,,2013-07-10 12:43:00,
2013-07-10 06:52:00,67.0,34.0,30.38,SSW,200,3.0,8.0,29,0.00,,,0.00,,2013-07-10 12:52:00,
2013-07-10 07:01:00,67.0,35.0,30.38,South,190,5.0,8.0,30,0.00,,,0.00,,2013-07-10 13:01:00,
2013-07-10 07:52:00,68.0,36.0,30.39,South,183,5.0,8.0,31,0.00,,,0.00,,2013-07-10 13:52:00,
2013-07-10 08:22:00,71.0,38.0,30.40,SE,142,3.0,8.0,30,0.00,,,0.00,,2013-07-10 14:22:00,
2013-07-10 08:33:00,72.0,38.0,30.40,South,173,3.0,7.0,29,0.00,,,0.00,,2013-07-10 14:33:00,
2013-07-10 09:22:00,76.0,40.0,30.40,SE,130,4.0,9.0,27,0.00,,,0.00,,2013-07-10 15:22:00,
2013-07-10 09:34:00,76.0,41.0,30.40,SSW,210,2.0,7.0,28,0.00,,,0.00,,2013-07-10 15:34:00,
2013-07-10 09:42:00,77.0,40.0,30.41,SE,130,1.0,6.0,27,0.00,,,0.00,,2013-07-10 15:42:00,
2013-07-10 09:52:00,77.0,40.0,30.41,SE,130,1.0,6.0,27,0.00,,,0.00,,2013-07-10 15:52:00,
2013-07-10 10:11:00,79.0,41.0,30.40,ESE,114,5.0,8.0,26,0.00,,,0.00,,2013-07-10 16:11:00,
2013-07-10 10:22:00,79.0,41.0,30.40,ESE,114,5.0,8.0,26,0.00,,,0.00,,2013-07-10 16:22:00,
2013-07-10 10:33:00,79.0,40.0,30.40,East,81,5.0,10.0,25,0.00,,,0.00,,2013-07-10 16:33:00,
2013-07-10 10:44:00,79.0,40.0,30.40,East,81,5.0,10.0,25,0.00,,,0.00,,2013-07-10 16:44:00,
2013-07-10 10:53:00,81.0,40.0,30.40,NW,323,1.0,7.0,23,0.00,,,0.00,,2013-07-10 16:53:00,
2013-07-10 11:02:00,82.0,41.0,30.40,North,355,0.0,5.0,23,0.00,,,0.00,,2013-07-10 17:02:00,
2013-07-10 11:11:00,82.0,41.0,30.40,North,355,0.0,5.0,23,0.00,,,0.00,,2013-07-10 17:11:00,
2013-07-10 11:23:00,84.0,41.0,30.40,NE,46,4.0,10.0,22,0.00,,,0.00,,2013-07-10 17:23:00,
2013-07-10 11:32:00,85.0,39.0,30.39,NNE,23,4.0,11.0,20,0.00,,,0.00,,2013-07-10 17:32:00,
2013-07-10 11:42:00,85.0,39.0,30.39,NNE,23,4.0,11.0,20,0.00,,,0.00,,2013-07-10 17:42:00,
2013-07-10 11:53:00,86.0,40.0,30.39,NNE,14,5.0,15.0,20,0.00,,,0.00,,2013-07-10 17:53:00,
2013-07-10 12:02:00,83.0,39.0,30.39,North,5,3.0,9.0,21,0.00,,,0.00,,2013-07-10 18:02:00,
2013-07-10 12:11:00,83.0,39.0,30.39,North,5,3.0,9.0,21,0.00,,,0.00,,2013-07-10 18:11:00,
2013-07-10 12:21:00,83.0,39.0,30.38,ENE,69,3.0,10.0,21,0.00,,,0.00,,2013-07-10 18:21:00,
2013-07-10 12:32:00,83.0,38.0,30.38,WSW,243,2.0,7.0,20,0.00,,,0.00,,2013-07-10 18:32:00,
2013-07-10 12:44:00,83.0,38.0,30.38,WSW,243,2.0,7.0,20,0.00,,,0.00,,2013-07-10 18:44:00,
2013-07-10 12:53:00,82.0,36.0,30.38,SW,218,2.0,8.0,19,0.00,,,0.00,,2013-07-10 18:53:00,
2013-07-10 13:01:00,85.0,37.0,30.37,NNW,342,5.0,12.0,18,0.00,,,0.00,,2013-07-10 19:01:00,
2013-07-10 13:11:00,85.0,37.0,30.37,NNW,342,5.0,12.0,18,0.00,,,0.00,,2013-07-10 19:11:00,
2013-07-10 13:21:00,83.0,38.0,30.37,SW,224,4.0,8.0,20,0.00,,,0.00,,2013-07-10 19:21:00,
2013-07-10 13:32:00,83.0,36.0,30.36,SSE,150,1.0,7.0,19,0.00,,,0.00,,2013-07-10 19:32:00,
2013-07-10 13:42:00,83.0,36.0,30.36,SSE,150,1.0,7.0,19,0.00,,,0.00,,2013-07-10 19:42:00,
2013-07-10 13:53:00,85.0,37.0,30.36,NNW,342,6.0,12.0,18,0.00,,,0.00,,2013-07-10 19:53:00,
2013-07-10 14:01:00,84.0,36.0,30.35,NNE,13,2.0,10.0,18,0.00,,,0.00,,2013-07-10 20:01:00,
2013-07-10 14:11:00,84.0,36.0,30.35,NNE,13,2.0,10.0,18,0.00,,,0.00,,2013-07-10 20:11:00,
2013-07-10 14:22:00,86.0,35.0,30.35,NNE,18,1.0,9.0,16,0.00,,,0.00,,2013-07-10 20:22:00,
2013-07-10 14:32:00,86.0,36.0,30.35,ENE,74,0.0,11.0,17,0.00,,,0.00,,2013-07-10 20:32:00,
2013-07-10 14:43:00,86.0,36.0,30.35,ENE,74,0.0,11.0,17,0.00,,,0.00,,2013-07-10 20:43:00,
2013-07-10 14:52:00,85.0,37.0,30.34,North,5,4.0,6.0,18,0.00,,,0.00,,2013-07-10 20:52:00,
2013-07-10 15:01:00,85.0,39.0,30.34,SSE,155,12.0,21.0,20,0.00,,,0.00,,2013-07-10 21:01:00,
2013-07-10 15:11:00,85.0,39.0,30.34,SSE,155,12.0,21.0,20,0.00,,,0.00,,2013-07-10 21:11:00,
2013-07-10 15:22:00,80.0,39.0,30.34,SSW,192,9.0,21.0,23,0.00,,,0.00,,2013-07-10 21:22:00,
2013-07-10 15:32:00,82.0,41.0,30.33,South,173,10.0,16.0,23,0.00,,,0.00,,2013-07-10 21:32:00,
2013-07-10 15:41:00,82.0,41.0,30.33,South,173,10.0,16.0,23,0.00,,,0.00,,2013-07-10 21:41:00,
2013-07-10 15:52:00,81.0,41.0,30.33,SSW,196,5.0,10.0,24,0.00,,,0.00,,2013-07-10 21:52:00,
2013-07-10 16:01:00,81.0,40.0,30.33,South,169,4.0,8.0,23,0.00,,,0.00,,2013-07-10 22:01:00,
2013-07-10 16:11:00,81.0,40.0,30.33,South,169,4.0,8.0,23,0.00,,,0.00,,2013-07-10 22:11:00,
2013-07-10 16:21:00,84.0,37.0,30.33,East,92,3.0,8.0,19,0.00,,,0.00,,2013-07-10 22:21:00,
2013-07-10 16:33:00,85.0,37.0,30.32,SE,144,3.0,7.0,18,0.00,,,0.00,,2013-07-10 22:33:00,
2013-07-10 16:42:00,85.0,37.0,30.32,SE,144,3.0,7.0,18,0.00,,,0.00,,2013-07-10 22:42:00,
2013-07-10 16:53:00,83.0,39.0,30.31,SSE,147,1.0,7.0,21,0.00,,,0.00,,2013-07-10 22:53:00,
2013-07-10 17:01:00,83.0,36.0,30.30,SSE,168,3.0,6.0,19,0.00,,,0.00,,2013-07-10 23:01:00,
2013-07-10 17:11:00,83.0,36.0,30.30,SSE,168,3.0,6.0,19,0.00,,,0.00,,2013-07-10 23:11:00,
2013-07-10 17:22:00,84.0,36.0,30.29,ENE,71,3.0,9.0,18,0.00,,,0.00,,2013-07-10 23:22:00,
2013-07-10 17:32:00,85.0,39.0,30.30,SSE,157,0.0,6.0,20,0.00,,,0.00,,2013-07-10 23:32:00,
2013-07-10 17:43:00,85.0,39.0,30.30,SSE,157,0.0,6.0,20,0.00,,,0.00,,2013-07-10 23:43:00,
2013-07-10 17:52:00,85.0,35.0,30.29,ENE,61,6.0,11.0,17,0.00,,,0.00,,2013-07-10 23:52:00,
2013-07-10 18:01:00,86.0,38.0,30.29,ESE,123,2.0,8.0,18,0.00,,,0.00,,2013-07-11 00:01:00,
2013-07-10 18:11:00,86.0,38.0,30.29,ESE,123,2.0,8.0,18,0.00,,,0.00,,2013-07-11 00:11:00,
2013-07-10 18:22:00,84.0,39.0,30.29,SSE,148,2.0,6.0,20,0.00,,,0.00,,2013-07-11 00:22:00,
2013-07-10 18:32:00,84.0,39.0,30.29,SSE,148,2.0,6.0,20,0.00,,,0.00,,2013-07-11 00:32:00,
2013-07-10 18:42:00,84.0,39.0,30.28,ESE,121,0.0,3.0,20,0.00,,,0.00,,2013-07-11 00:42:00,
2013-07-10 18:52:00,86.0,33.0,30.29,NNE,28,3.0,10.0,15,0.00,,,0.00,,2013-07-11 00:52:00,
2013-07-10 19:01:00,86.0,33.0,30.29,NNE,28,3.0,10.0,15,0.00,,,0.00,,2013-07-11 01:01:00,
2013-07-10 19:11:00,87.0,34.0,30.28,NNE,30,2.0,10.0,15,0.00,,,0.00,,2013-07-11 01:11:00,
2013-07-10 19:22:00,87.0,34.0,30.28,NNE,30,2.0,10.0,15,0.00,,,0.00,,2013-07-11 01:22:00,
2013-07-10 19:32:00,86.0,33.0,30.29,NE,44,2.0,9.0,15,0.00,,,0.00,,2013-07-11 01:32:00,
2013-07-10 19:43:00,86.0,33.0,30.29,NE,44,2.0,9.0,15,0.00,,,0.00,,2013-07-11 01:43:00,
2013-07-10 19:52:00,84.0,33.0,30.29,NNE,17,2.0,9.0,16,0.00,,,0.00,,2013-07-11 01:52:00,
2013-07-10 20:02:00,83.0,32.0,30.29,NNW,348,2.0,7.0,16,0.00,,,0.00,,2013-07-11 02:02:00,
2013-07-10 20:11:00,83.0,32.0,30.29,NNW,348,2.0,7.0,16,0.00,,,0.00,,2013-07-11 02:11:00,
2013-07-10 20:22:00,82.0,33.0,30.29,NNW,338,1.0,5.0,17,0.00,,,0.00,,2013-07-11 02:22:00,
2013-07-10 20:32:00,81.0,32.0,30.29,NNW,338,1.0,3.0,17,0.00,,,0.00,,2013-07-11 02:32:00,
2013-07-10 20:43:00,81.0,32.0,30.29,NNW,338,1.0,3.0,17,0.00,,,0.00,,2013-07-11 02:43:00,
2013-07-10 20:53:00,79.0,32.0,30.29,NNW,332,3.0,4.0,18,0.00,,,0.00,,2013-07-11 02:53:00,
2013-07-10 21:01:00,77.0,33.0,30.29,WSW,256,3.0,6.0,20,0.00,,,0.00,,2013-07-11 03:01:00,
2013-07-10 21:11:00,77.0,33.0,30.29,WSW,256,3.0,6.0,20,0.00,,,0.00,,2013-07-11 03:11:00,
2013-07-10 21:21:00,75.0,36.0,30.29,South,190,5.0,10.0,24,0.00,,,0.00,,2013-07-11 03:21:00,
2013-07-10 21:33:00,75.0,40.0,30.30,WNW,297,4.0,14.0,28,0.00,,,0.00,,2013-07-11 03:33:00,
2013-07-10 21:42:00,75.0,40.0,30.30,WNW,297,4.0,14.0,28,0.00,,,0.00,,2013-07-11 03:42:00,
2013-07-10 21:52:00,75.0,41.0,30.31,South,190,2.0,12.0,30,0.00,,,0.00,,2013-07-11 03:52:00,
2013-07-10 22:01:00,74.0,42.0,30.31,SSW,211,8.0,17.0,32,0.00,,,0.00,,2013-07-11 04:01:00,
2013-07-10 22:12:00,74.0,42.0,30.31,SSW,211,8.0,17.0,32,0.00,,,0.00,,2013-07-11 04:12:00,
2013-07-10 22:22:00,73.0,43.0,30.32,South,177,8.0,17.0,34,0.00,,,0.00,,2013-07-11 04:22:00,
2013-07-10 22:32:00,73.0,44.0,30.32,SSE,152,13.0,21.0,35,0.00,,,0.00,,2013-07-11 04:32:00,
2013-07-10 22:42:00,73.0,44.0,30.32,SSE,152,13.0,21.0,35,0.00,,,0.00,,2013-07-11 04:42:00,
2013-07-10 22:53:00,72.0,44.0,30.33,South,178,14.0,22.0,36,0.00,,,0.00,,2013-07-11 04:53:00,
2013-07-10 23:01:00,72.0,44.0,30.33,South,186,9.0,21.0,37,0.00,,,0.00,,2013-07-11 05:01:00,
2013-07-10 23:12:00,72.0,44.0,30.33,South,186,9.0,21.0,37,0.00,,,0.00,,2013-07-11 05:12:00,
2013-07-10 23:22:00,71.0,43.0,30.33,South,173,10.0,21.0,36,0.00,,,0.00,,2013-07-11 05:22:00,
2013-07-10 23:32:00,72.0,42.0,30.34,SSE,150,11.0,18.0,34,0.00,,,0.00,,2013-07-11 05:32:00,
2013-07-10 23:43:00,72.0,42.0,30.34,SSE,150,11.0,18.0,34,0.00,,,0.00,,2013-07-11 05:43:00,
2013-07-10 23:52:00,72.0,43.0,30.34,SSW,208,13.0,20.0,35,0.00,,,0.00,,2013-07-11 05:52:00,